Location: La Oliva
(42.2466°N, 2.9955°E)
Time: 09:58:27
(UTC+00:00)

SPOT 3 Rocket - Pass Details

Date: 22 April 2021
Orbit: 778 x 795 km, 98.7° (Epoch: 10 May)

Event Time Altitude Azimuth Distance (km) Brightness Sun altitude
Exits shadow 19:40:39 15° 123° (ESE) 1,991 5.0 -11.5°
Maximum altitude 19:44:12 34° 67° (ENE) 1,289 4.4 -12.1°
Drops below altitude 10° 19:48:49 10° 4° (N) 2,352 6.4 -12.9°
Sets 19:51:19 0° 356° (N) 3,282 7.3 -13.3°
